Astoria, OR

3:34 AM PST on February 24, 2017 (GMT -0800)
Astoria Regional

Weather History for KAST - October, 2012

Change the Weather History Date:

Saturday, October 27, 2012

  Actual Average Record
Temperature  
Mean Temperature 54 °F 50 °F  
Max Temperature 58 °F 58 °F 70 °F (1944)
Min Temperature 50 °F 43 °F 29 °F (1971)
Degree Days  
Heating Degree Days 11 15  
Month to date heating degree days 354 326  
Since 1 July heating degree days 861 807  
Cooling Degree Days 0 0  
Month to date cooling degree days 0 0  
Year to date cooling degree days 25 12  
Growing Degree Days 2 (Base 50)    
Moisture  
Dew Point 53 °F    
Average Humidity 97    
Maximum Humidity 100    
Minimum Humidity 93    
Precipitation  
Precipitation 1.65 in 0.25 in 1.85 in (1960)
Month to date precipitation 8.06 4.89  
Year to date precipitation 57.77 45.13  
Snow  
Snow 0.00 in - - ()
Month to date snowfall 0.0  
Snow Depth 0.00 in    
Sea Level Pressure  
Sea Level Pressure 29.92 in    
Wind  
Wind Speed 12 mph (South)    
Max Wind Speed 25 mph    
Max Gust Speed 38 mph    
Visibility 4 miles    
Events Rain    
T = Trace of Precipitation, MM = Missing Value Source: NWS Daily Summary

Daily Weather History Graph

Daily Weather History Graph

Search for Another Location

Airport or City:

Trip Planner

Search our weather history database for the weather conditions in past years. The results will help you decide how hot, cold, wet, or windy it might be!

Date:

Astronomy

Oct. 27, 2012 Rise Set
Actual Time 7:50 AM PDT 6:07 PM PDT
Civil Twilight 7:19 AM PDT 6:38 PM PDT
Nautical Twilight 6:43 AM PDT 7:13 PM PDT
Astronomical Twilight 6:09 AM PDT 7:48 PM PDT
Moon 4:59 PM PDT (10/27) 5:46 AM PDT (10/27)
Length of Visible Light 11h 19m
Length of Day
10h 17m
Waxing Gibbous, 96% of the Moon is Illuminated
Oct 27
Waxing Gibbous
Oct 29
Full
Nov 6
Last Quarter
Nov 13
New
Nov 20
First Quarter

Hourly Weather History & Observations

Time (PDT) Temp. Dew Point Humidity Pressure Visibility Wind Dir Wind Speed Gust Speed Precip Events Conditions
12:08 AM 53.6 °F 51.8 °F 94% 30.09 in 9.0 mi SSW 11.5 mph - N/A   Overcast
12:36 AM 53.6 °F 51.8 °F 94% 30.09 in 10.0 mi SSW 9.2 mph - N/A   Overcast
12:55 AM 53.1 °F 51.1 °F 93% 30.09 in 9.0 mi SSW 12.7 mph 19.6 mph N/A   Overcast
1:05 AM 53.6 °F 51.8 °F 94% 30.09 in 8.0 mi SSW 11.5 mph 19.6 mph N/A   Overcast
1:12 AM 53.6 °F 51.8 °F 94% 30.08 in 8.0 mi South 12.7 mph 20.7 mph N/A   Overcast
1:35 AM 53.6 °F 51.8 °F 94% 30.08 in 9.0 mi SSW 9.2 mph 16.1 mph N/A   Overcast
1:55 AM 53.1 °F 51.1 °F 93% 30.08 in 10.0 mi SSW 11.5 mph 24.2 mph N/A   Overcast
2:10 AM 53.6 °F 51.8 °F 94% 30.08 in 10.0 mi South 6.9 mph 18.4 mph N/A   Overcast
2:19 AM 53.6 °F 51.8 °F 94% 30.08 in 7.0 mi South 8.1 mph 16.1 mph 0.00 in Rain Light Rain
2:30 AM 53.6 °F 51.8 °F 94% 30.08 in 10.0 mi South 8.1 mph 19.6 mph 0.00 in   Overcast
2:51 AM 53.6 °F 51.8 °F 94% 30.07 in 10.0 mi South 9.2 mph - 0.00 in   Overcast
2:55 AM 53.1 °F 51.1 °F 93% 30.07 in 10.0 mi South 10.4 mph - 0.00 in   Overcast
3:55 AM 53.1 °F 51.1 °F 93% 30.08 in 10.0 mi South 11.5 mph - N/A   Overcast
4:55 AM 53.1 °F 51.1 °F 93% 30.08 in 10.0 mi SSW 8.1 mph - 0.00 in Rain Light Rain
5:55 AM 52.0 °F 51.1 °F 97% 30.05 in 6.0 mi SSE 6.9 mph - 0.04 in Rain Rain
6:47 AM 51.8 °F 50.0 °F 94% 30.03 in 5.0 mi SE 4.6 mph - 0.10 in Rain Rain
6:55 AM 51.8 °F 50.0 °F 94% 30.02 in 5.0 mi ESE 5.8 mph - N/A Rain Rain
7:07 AM 51.8 °F 50.0 °F 94% 30.00 in 4.0 mi SE 8.1 mph - 0.02 in Rain Light Rain
7:55 AM 51.1 °F 50.0 °F 96% 29.99 in 5.0 mi ESE 4.6 mph - 0.10 in Rain Light Rain
8:34 AM 51.8 °F 48.2 °F 88% 29.98 in 2.5 mi ESE 6.9 mph - 0.09 in Rain Rain
8:41 AM 50.0 °F 48.2 °F 94% 29.98 in 3.0 mi ESE 5.8 mph - 0.11 in Rain Rain
8:55 AM 50.0 °F 48.9 °F 96% 29.99 in 4.0 mi ESE 8.1 mph - 0.12 in Rain Light Rain
9:03 AM 50.0 °F 48.2 °F 94% 30.00 in 3.0 mi East 3.5 mph - 0.00 in Rain Light Rain
9:16 AM 50.0 °F 48.2 °F 94% 29.99 in 1.8 mi ESE 5.8 mph - 0.01 in Rain Rain
9:25 AM 50.0 °F 48.2 °F 94% 29.98 in 1.2 mi East 4.6 mph - 0.03 in Rain Light Rain
9:34 AM 50.0 °F 48.2 °F 94% 29.98 in 1.5 mi East 5.8 mph - 0.04 in Rain Light Rain
9:41 AM 50.0 °F 48.2 °F 94% 29.98 in 2.0 mi East 6.9 mph - N/A Rain Light Rain
9:53 AM 50.0 °F 48.2 °F 94% 29.97 in 1.8 mi ESE 6.9 mph - 0.08 in Rain Rain
9:55 AM 50.0 °F 48.9 °F 96% 29.97 in 1.8 mi ESE 5.8 mph - 0.08 in Rain Light Rain
9:57 AM 50.0 °F 48.2 °F 94% 29.97 in 2.0 mi ESE 5.8 mph - N/A Rain Light Rain
10:39 AM 50.0 °F 48.2 °F 94% 29.95 in 1.2 mi East 3.5 mph - 0.06 in Rain Rain
10:50 AM 50.0 °F 48.2 °F 94% 29.94 in 1.0 mi East 3.5 mph - 0.09 in Rain Rain
10:55 AM 50.0 °F 48.9 °F 96% 29.94 in 1.2 mi East 3.5 mph - 0.10 in Rain Light Rain
11:06 AM 50.0 °F 50.0 °F 100% 29.94 in 1.5 mi East 3.5 mph - 0.02 in Rain Light Rain
11:16 AM 50.0 °F 50.0 °F 100% 29.94 in 1.2 mi ENE 3.5 mph - 0.04 in Rain Light Rain
11:24 AM 51.8 °F 50.0 °F 94% 29.93 in 2.0 mi ENE 5.8 mph - 0.04 in Rain Light Rain
11:28 AM 51.8 °F 50.0 °F 94% 29.93 in 3.0 mi ENE 5.8 mph - 0.04 in Rain Light Rain
11:55 AM 52.0 °F 51.1 °F 97% 29.92 in 4.0 mi ESE 4.6 mph - 0.04 in   Overcast
12:40 PM 55.4 °F 55.4 °F 100% 29.90 in 2.0 mi SSW 15.0 mph 23.0 mph 0.03 in Rain Light Rain
12:55 PM 57.0 °F 55.9 °F 96% 29.90 in 1.8 mi SSW 18.4 mph 28.8 mph 0.04 in Rain Light Rain
1:04 PM 57.2 °F 55.4 °F 94% 29.89 in 3.0 mi SSW 18.4 mph 29.9 mph 0.00 in Rain Light Rain
1:33 PM 57.2 °F 55.4 °F 94% 29.88 in 2.5 mi SSW 18.4 mph 26.5 mph 0.06 in Rain Rain
1:39 PM 57.2 °F 55.4 °F 94% 29.88 in 2.5 mi SSW 17.3 mph 26.5 mph 0.07 in Rain Rain
1:52 PM 57.2 °F 55.4 °F 94% 29.88 in 5.0 mi SSW 16.1 mph 25.3 mph 0.09 in Rain Light Rain
1:55 PM 57.0 °F 55.9 °F 96% 29.88 in 5.0 mi SSW 16.1 mph 26.5 mph 0.10 in Rain Rain
2:08 PM 57.2 °F 55.4 °F 94% 29.88 in 1.8 mi SSW 16.1 mph 25.3 mph 0.03 in Rain Heavy Rain
2:16 PM 57.2 °F 55.4 °F 94% 29.87 in 1.0 mi SSW 16.1 mph 25.3 mph 0.12 in Rain Heavy Rain
2:26 PM 57.2 °F 55.4 °F 94% 29.87 in 2.0 mi SSW 13.8 mph 24.2 mph 0.18 in Rain Rain
2:36 PM 57.2 °F 55.4 °F 94% 29.86 in 4.0 mi SSW 13.8 mph 24.2 mph 0.20 in Rain Light Rain
2:55 PM 57.0 °F 55.9 °F 96% 29.86 in 6.0 mi SSW 13.8 mph 26.5 mph 0.23 in Rain Light Rain
3:03 PM 57.2 °F 55.4 °F 94% 29.86 in 2.5 mi SSW 12.7 mph 25.3 mph 0.03 in Rain Heavy Rain
3:22 PM 57.2 °F 55.4 °F 94% 29.85 in 1.2 mi SSW 16.1 mph 25.3 mph 0.13 in Rain Heavy Rain
3:32 PM 57.2 °F 55.4 °F 94% 29.85 in 2.0 mi SSW 16.1 mph 27.6 mph 0.18 in Rain Rain
3:55 PM 57.0 °F 55.9 °F 96% 29.84 in 2.0 mi SSW 18.4 mph 27.6 mph 0.21 in Rain Light Rain
4:04 PM 57.2 °F 55.4 °F 94% 29.84 in 4.0 mi SSW 17.3 mph 29.9 mph 0.00 in Rain Light Rain
4:12 PM 57.2 °F 55.4 °F 94% 29.84 in 2.0 mi SSW 18.4 mph 28.8 mph 0.01 in Rain Light Rain
4:16 PM 57.2 °F 55.4 °F 94% 29.83 in 1.2 mi SSW 21.9 mph 29.9 mph 0.01 in Rain Light Rain
4:26 PM 57.2 °F 55.4 °F 94% 29.83 in 2.0 mi SSW 17.3 mph 28.8 mph 0.02 in Rain Light Rain
4:35 PM 57.2 °F 55.4 °F 94% 29.82 in 3.0 mi South 19.6 mph 28.8 mph 0.02 in Rain Light Rain
4:43 PM 57.2 °F 55.4 °F 94% 29.81 in 4.0 mi South 19.6 mph 31.1 mph 0.03 in Rain Light Rain
4:55 PM 57.9 °F 55.9 °F 93% 29.82 in 2.0 mi SSW 18.4 mph 33.4 mph 0.03 in Rain Rain
4:59 PM 57.2 °F 55.4 °F 94% 29.82 in 1.2 mi SSW 18.4 mph 33.4 mph 0.01 in Rain Rain
5:05 PM 57.2 °F 55.4 °F 94% 29.82 in 1.8 mi SSW 16.1 mph 28.8 mph 0.03 in Rain Rain
5:11 PM 57.2 °F 55.4 °F 94% 29.81 in 1.2 mi SSW 20.7 mph 34.5 mph 0.09 in Rain Heavy Rain
5:24 PM 57.2 °F 55.4 °F 94% 29.80 in 1.5 mi SSW 20.7 mph 32.2 mph 0.14 in Rain Rain
5:34 PM 57.2 °F 55.4 °F 94% 29.81 in 1.2 mi SSW 17.3 mph 28.8 mph 0.20 in Rain Heavy Rain
5:55 PM 57.0 °F 55.9 °F 96% 29.81 in 1.0 mi SSW 23.0 mph 34.5 mph 0.36 in Rain Heavy Rain
6:02 PM 57.2 °F 55.4 °F 94% 29.81 in 1.5 mi SSW 20.7 mph 33.4 mph 0.01 in Rain Light Rain
6:10 PM 57.2 °F 55.4 °F 94% 29.81 in 2.5 mi SSW 19.6 mph 33.4 mph 0.02 in Rain Rain
6:29 PM 57.2 °F 55.4 °F 94% 29.82 in 2.0 mi SSW 20.7 mph 38.0 mph 0.05 in Rain Rain
6:48 PM 57.2 °F 55.4 °F 94% 29.83 in 3.0 mi SW 19.6 mph 32.2 mph 0.07 in Rain Light Rain
6:55 PM 57.0 °F 55.9 °F 96% 29.83 in 3.0 mi SW 17.3 mph 29.9 mph 0.07 in Rain Light Rain
7:06 PM 57.2 °F 57.2 °F 100% 29.84 in 2.5 mi SW 17.3 mph 32.2 mph 0.01 in Rain Light Rain
7:35 PM 57.2 °F 57.2 °F 100% 29.85 in 3.0 mi SSW 18.4 mph 32.2 mph 0.03 in Rain Light Rain
7:44 PM 57.2 °F 55.4 °F 94% 29.86 in 2.0 mi SSW 18.4 mph 27.6 mph 0.03 in Rain Light Rain
7:55 PM 55.9 °F 55.9 °F 100% 29.86 in 1.8 mi SSW 18.4 mph 25.3 mph 0.04 in Rain Light Rain
8:04 PM 55.4 °F 55.4 °F 100% 29.86 in 2.5 mi SSW 18.4 mph 28.8 mph 0.00 in Rain Light Rain
8:40 PM 55.4 °F 55.4 °F 100% 29.86 in 4.0 mi SW 16.1 mph 25.3 mph 0.02 in Rain Light Rain
8:50 PM 55.4 °F 55.4 °F 100% 29.86 in 3.0 mi SW 16.1 mph 27.6 mph 0.02 in Rain Light Rain
8:55 PM 55.9 °F 55.9 °F 100% 29.86 in 2.0 mi SW 17.3 mph 26.5 mph 0.02 in Rain Light Rain
9:16 PM 55.4 °F 55.4 °F 100% 29.87 in 1.8 mi SW 10.4 mph 26.5 mph 0.00 in Rain Light Rain
9:25 PM 55.4 °F 55.4 °F 100% 29.87 in 2.0 mi SW 16.1 mph 23.0 mph 0.00 in Rain Light Rain
9:44 PM 55.4 °F 55.4 °F 100% 29.87 in 1.2 mi SW 16.1 mph 27.6 mph 0.00 in   Overcast
9:55 PM 55.9 °F 55.9 °F 100% 29.88 in 1.2 mi SW 15.0 mph 26.5 mph 0.00 in   Overcast
10:14 PM 57.2 °F 57.2 °F 100% 29.89 in 2.0 mi SW 15.0 mph - 0.00 in Rain Light Rain
10:27 PM 57.2 °F 57.2 °F 100% 29.89 in 1.2 mi SW 17.3 mph 25.3 mph 0.00 in Rain Light Rain
10:55 PM 57.0 °F 57.0 °F 100% 29.90 in 1.5 mi SW 17.3 mph 23.0 mph 0.00 in   Overcast
11:08 PM 57.2 °F 55.4 °F 94% 29.90 in 2.0 mi SW 12.7 mph 24.2 mph N/A   Overcast
11:18 PM 57.2 °F 55.4 °F 94% 29.90 in 1.2 mi SW 16.1 mph - N/A   Overcast
11:55 PM 55.9 °F 55.9 °F 100% 29.91 in 1.2 mi SW 12.7 mph 20.7 mph 0.00 in   Overcast